SILO ALERT LOG


Silo ID Alert Type Alert Message Silo Type Points Depth (mm) Strength Temperature (°C) Humidity (%) Height (mm) Volume (㎥) Weight (t) Flag Time
DJSSD12 Temperature 온도센서 상태 이상 호퍼 0 11350 0 -999 -999 -120 0 0 31 2024-01-11 05:39:24.000
DJHNR12 Temperature 온도센서 측정값이 0도 미만 호퍼 0 10500 0 -4.4 82.7 -120 0 0 31 2024-01-11 05:39:23.000
DJHNR12 Humidity 습도센서 측정값이 80% 초과 호퍼 0 10500 0 -4.4 82.7 -120 0 0 31 2024-01-11 05:39:23.000
DJSAD01 Humidity 습도센서 측정값이 80% 초과 464 1523 7428 0.6 88.6 7256 300.386 189.904 0 2024-01-11 04:39:40.000
DJDJD03 Humidity 습도센서 측정값이 80% 초과 62 4636 5138 1.3 80.8 3043 368.716 233.102 0 2024-01-11 04:39:40.000
DJSAD03 Humidity 습도센서 측정값이 80% 초과 446 1710 6071 1.5 84.5 7069 292.666 185.023 0 2024-01-11 04:39:39.000
DJSAD08 Humidity 습도센서 측정값이 80% 초과 0 7700 3854 12.4 81.1 -120 -17.075 0 12 2024-01-11 04:39:38.000
DJSAD02 Humidity 습도센서 측정값이 80% 초과 379 1136 4275 1.4 88.2 7643 316.412 200.036 11 2024-01-11 04:39:38.000
DJSAD11 Humidity 습도센서 측정값이 80% 초과 341 1608 3270 0.7 80.4 5971 849.753 537.214 11 2024-01-11 04:39:35.000
DJSSD04 Temperature 온도센서 상태 이상 0 8200 0 -999 -999 -120 -16.702 0 31 2024-01-11 04:39:34.000
DJSSD05 Temperature 온도센서 측정값이 0도 미만 849 2540 4872 -45.4 43.7 5539 770.965 487.404 0 2024-01-11 04:39:33.000
DJSAD12 Humidity 습도센서 측정값이 80% 초과 0 7700 0 2.3 86.6 -120 -17.075 0 31 2024-01-11 04:39:33.000
DJHNR01 Humidity 습도센서 측정값이 80% 초과 호퍼 471 4307 5031 3.2 99.9 11072 472.84 298.929 13 2024-01-11 04:39:33.000
DJSSD01 Humidity 습도센서 측정값이 80% 초과 789 2555 4657 4.8 83.9 5524 768.962 486.137 0 2024-01-11 04:39:33.000
DJHNR13 Temperature 온도센서 측정값이 0도 미만 호퍼 428 2350 2574 -2.8 70 8029 119.247 75.388 11 2024-01-11 04:39:32.000
DJSSD11 Temperature 온도센서 측정값이 0도 미만 호퍼 446 7408 146 -4.3 82 3821 28.496 15.53 0 2024-01-11 04:39:32.000
DJSSD11 Humidity 습도센서 측정값이 80% 초과 호퍼 446 7408 146 -4.3 82 3821 28.496 15.53 0 2024-01-11 04:39:32.000
DJDJD04 Humidity 습도센서 측정값이 80% 초과 280 4198 4457 2.3 81.8 3481 421.851 266.694 11 2024-01-11 04:39:32.000
DJHNR11 Temperature 온도센서 측정값이 0도 미만 호퍼 232 3230 1080 -4.1 75 7149 100.263 63.386 11 2024-01-11 04:39:31.000
DJSAD16 Humidity 습도센서 측정값이 80% 초과 86 6498 3418 3.3 80.6 1081 107.698 68.086 11 2024-01-11 04:39:31.000

[첫 페이지] [10005] [10006] [10007] [10008] 10009 [10010] [10011] [10012] [10013] [마지막 페이지]